User: anonymous   Login
Location: Unspecified
(0.0000°N, 0.0000°E)
Time: 10:09:31
(UTC+00:00)
Language:

USA 200 - Orbit

View from above orbital plane
View from above orbital plane
View from above satellite
View from above satellite

Ground track
Ground track

The orbit data is extracted from the following two-line orbital elements,

1 32706U 08010A   18295.80387062 0.00000000  00000-0  00000-0 0    09
2 32706  63.2880 282.4896 7008920 272.1936  16.0827  2.00605000    09
Epoch (UTC): 22 October 2018 19:17:34
Eccentricity: 0.7008920
inclination: 63.2880°
perigee height: 1565 km
apogee height: 38791 km
right ascension of ascending node: 282.4896°
argument of perigee: 272.1936°
revolutions per day: 2.00605000
mean anomaly at epoch: 16.0827°
orbit number at epoch: 0

The dashed part of the orbit path shows where the satellite is in the earth's shadow,  

DLR